Lumberton, NC

3:15 AM EDT on April 23, 2017 (GMT -0400)
Lumberton Municipal

Weather History for KLBT - December, 2012

Change the Weather History Date:

Friday, December 7, 2012

  Actual Average Record
Temperature  
Mean Temperature 56 °F 48 °F  
Max Temperature 66 °F 59 °F 79 °F (1998)
Min Temperature 46 °F 37 °F 20 °F (2010)
Degree Days  
Heating Degree Days 9 17  
Month to date heating degree days 58 113  
Since 1 July heating degree days 656 579  
Cooling Degree Days 0 0  
Month to date cooling degree days 0 0  
Year to date cooling degree days 2053 1907  
Growing Degree Days 6 (Base 50)    
Moisture  
Dew Point 48 °F    
Average Humidity 82    
Maximum Humidity 100    
Minimum Humidity 63    
Precipitation  
Precipitation T in 0.10 in 0.51 in (2015)
Month to date precipitation 0.10 0.75  
Year to date precipitation 40.78 41.38  
Sea Level Pressure  
Sea Level Pressure 30.07 in    
Wind  
Wind Speed 5 mph (NNE)    
Max Wind Speed 10 mph    
Max Gust Speed 21 mph    
Visibility 8 miles    
Events      
T = Trace of Precipitation, MM = Missing Value Source: NWS Daily Summary

Daily Weather History Graph

Daily Weather History Graph

Search for Another Location

Airport or City:

Trip Planner

Search our weather history database for the weather conditions in past years. The results will help you decide how hot, cold, wet, or windy it might be!

Date:

Astronomy

Dec. 07, 2012 Rise Set
Actual Time 7:10 AM EST 5:05 PM EST
Civil Twilight 6:42 AM EST 5:33 PM EST
Nautical Twilight 6:11 AM EST 6:04 PM EST
Astronomical Twilight 5:40 AM EST 6:35 PM EST
Moon 12:41 AM EST (12/7) 12:49 PM EST (12/7)
Length of Visible Light 10h 50m
Length of Day
9h 55m
Last Quarter, 39% of the Moon is Illuminated
Dec 7
Last Quarter
Dec 13
New
Dec 20
First Quarter
Dec 28
Full
Jan 4
Last Quarter

Hourly Weather History & Observations

Time (EST) Temp. Dew Point Humidity Pressure Visibility Wind Dir Wind Speed Gust Speed Precip Events Conditions
12:54 AM 46.9 °F 37.0 °F 68% 30.17 in 10.0 mi North 5.8 mph - N/A   Overcast
1:54 AM 48.0 °F 37.0 °F 66% 30.17 in 10.0 mi NNE 6.9 mph - N/A   Overcast
2:54 AM 48.0 °F 37.0 °F 66% 30.15 in 10.0 mi NNE 6.9 mph - N/A   Overcast
3:54 AM 48.0 °F 37.9 °F 68% 30.14 in 10.0 mi NNE 6.9 mph - N/A   Overcast
4:29 AM 48.2 °F 39.2 °F 71% 30.14 in 10.0 mi NNE 6.9 mph - N/A   Overcast
4:54 AM 48.9 °F 39.0 °F 69% 30.14 in 10.0 mi NNE 5.8 mph - N/A   Overcast
5:54 AM 48.9 °F 39.0 °F 69% 30.14 in 10.0 mi NNE 6.9 mph - N/A   Overcast
6:13 AM 48.2 °F 39.2 °F 71% 30.14 in 10.0 mi NNE 9.2 mph - N/A   Overcast
6:54 AM 48.0 °F 39.9 °F 74% 30.14 in 10.0 mi North 8.1 mph - N/A   Overcast
7:54 AM 48.9 °F 41.0 °F 74% 30.14 in 10.0 mi NE 6.9 mph - N/A   Overcast
8:28 AM 48.2 °F 41.0 °F 76% 30.13 in 10.0 mi NNE 8.1 mph - N/A   Overcast
8:39 AM 48.2 °F 42.8 °F 82% 30.14 in 9.0 mi NE 8.1 mph - N/A   Overcast
8:54 AM 48.9 °F 42.1 °F 77% 30.14 in 10.0 mi NE 8.1 mph - N/A   Overcast
9:23 AM 50.0 °F 42.8 °F 76% 30.15 in 10.0 mi ENE 5.8 mph - N/A   Overcast
9:54 AM 52.0 °F 44.1 °F 74% 30.14 in 10.0 mi East 5.8 mph - N/A   Overcast
10:54 AM 55.0 °F 46.0 °F 72% 30.12 in 10.0 mi NE 6.9 mph - N/A   Overcast
11:39 AM 57.2 °F 48.2 °F 72% 30.08 in 10.0 mi NNE 4.6 mph - N/A   Overcast
11:54 AM 57.9 °F 48.9 °F 72% 30.08 in 10.0 mi NE 6.9 mph - N/A   Mostly Cloudy
12:03 PM 57.2 °F 48.2 °F 72% 30.07 in 10.0 mi East 3.5 mph - N/A   Mostly Cloudy
12:54 PM 61.0 °F 50.0 °F 67% 30.04 in 10.0 mi ENE 5.8 mph - N/A   Overcast
1:54 PM 66.0 °F 53.1 °F 63% 30.01 in 10.0 mi NNE 4.6 mph - N/A   Scattered Clouds
2:54 PM 64.9 °F 54.0 °F 68% 30.00 in 10.0 mi ENE 3.5 mph - N/A   Mostly Cloudy
3:01 PM 64.4 °F 53.6 °F 68% 30.00 in 10.0 mi ENE 4.6 mph - N/A   Overcast
3:54 PM 64.9 °F 55.0 °F 70% 29.99 in 10.0 mi ENE 5.8 mph - N/A   Overcast
4:54 PM 62.1 °F 55.9 °F 80% 30.00 in 8.0 mi Calm Calm - N/A   Overcast
5:54 PM 61.0 °F 57.0 °F 87% 30.00 in 6.0 mi NW 4.6 mph - N/A   Overcast
6:54 PM 59.0 °F 57.9 °F 96% 30.01 in 5.0 mi NW 4.6 mph - 0.00 in   Overcast
7:37 PM 59.0 °F 57.2 °F 94% 30.01 in 4.0 mi NW 4.6 mph - N/A   Overcast
7:46 PM 59.0 °F 57.2 °F 94% 30.02 in 3.0 mi NW 6.9 mph - N/A   Overcast
8:19 PM 57.2 °F 57.2 °F 100% 30.01 in 3.0 mi NW 5.8 mph - 0.00 in   Overcast
8:54 PM 57.0 °F 55.9 °F 96% 30.01 in 4.0 mi NNW 5.8 mph - 0.00 in   Overcast
9:54 PM 57.0 °F 55.9 °F 96% 30.01 in 4.0 mi NNW 3.5 mph - N/A   Overcast
10:54 PM 55.9 °F 55.0 °F 97% 30.01 in 4.0 mi NW 4.6 mph - N/A   Overcast
11:10 PM 55.4 °F 55.4 °F 100% 30.01 in 4.0 mi NNW 4.6 mph - N/A   Overcast
11:29 PM 55.4 °F 55.4 °F 100% 30.01 in 2.5 mi Calm Calm - N/A   Overcast
11:40 PM 55.4 °F 55.4 °F 100% 30.00 in 3.0 mi NNW 3.5 mph - N/A   Overcast
11:47 PM 55.4 °F 55.4 °F 100% 30.01 in 3.0 mi NW 4.6 mph - N/A   Overcast
11:54 PM 55.9 °F 55.0 °F 97% 30.00 in 3.0 mi Calm Calm - N/A   Overcast